Home > Weather > Glendale > Past weeks

Flag for USA Past Weather in Glendale, California, USA — Yesterday and Last 2 Weeks

Now
75 °F

Clear.


Feels Like: 77 °F
Forecast: 70 / 86 °F
Wind: 8 mph from Southeast

Location: Bob Hope Airport

Current Time: Jul 31, 2016 at 12:25:49 AM

Latest Report: Jul 30, 2016 at 11:53 PM


Visibility: 10 mi

Pressure: 29.85 "Hg

Humidity: 66%

Dew Point: 63 °F

Location of GlendaleLocation

Past Weather in Glendale — Graph

°F

Glendale Temperature Yesterday

Maximum temperature yesterday: 91 °F (at 2:53 PM)
Minimum temperature yesterday: 70 °F (at 4:53 AM)
Average temperature yesterday: 79 °F

High & Low Weather Summary for the Past Weeks

 TemperatureHumidityPressure
High101 °F (Jul 22, 2:53 PM)90% (Jul 16, 2:53 AM)30.00 "Hg (Jul 16, 2:53 AM)
Low61 °F (Jul 17, 5:53 AM)11% (Jul 21, 2:53 PM)29.72 "Hg (Jul 29, 6:53 PM)
Average80 °F48%29.86 "Hg
* Reported Jul 15 10:53 PM — Jul 30 10:53 PM, Glendale, Weather by CustomWeather, © 2016

Note: Actual official high and low records may vary slightly from our data, if they occured in-between our weather recording intervals... More about our weather records

Advertising

Glendale Weather History for the Previous 24 Hours

Scroll right to see more
 ConditionsComfort  
Time TempWeatherWind HumidityBarometerVisibility
10:53 PM
Sat, Jul 30
75 °FClear.8 mph69%29.84 "Hg10 mi
9:53 PM76 °FClear.7 mph67%29.83 "Hg10 mi
8:53 PM77 °FSunny.6 mph64%29.81 "Hg10 mi
7:53 PM79 °FSunny.6 mph62%29.79 "Hg10 mi
6:53 PM81 °FSunny.7 mph58%29.78 "Hg10 mi
5:53 PM84 °FSunny.12 mph53%29.77 "Hg10 mi
4:53 PM87 °FSunny.14 mph43%29.77 "Hg6 mi
3:53 PM91 °FSunny.13 mph33%29.77 "Hg6 mi
2:53 PM91 °FSunny.3 mph44%29.78 "Hg5 mi
1:53 PM87 °FSunny.7 mph50%29.80 "Hg5 mi
12:53 PM84 °FSunny.8 mph55%29.83 "Hg5 mi
11:53 AM84 °FSunny.9 mph53%29.84 "Hg5 mi
10:53 AM83 °FOvercast.9 mph51%29.84 "Hg6 mi
9:53 AM79 °FOvercast.3 mph56%29.85 "Hg10 mi
8:53 AM76 °FOvercast.3 mph60%29.85 "Hg10 mi
7:53 AM73 °FPartly sunny.No wind66%29.83 "Hg10 mi
6:53 AM71 °FClear.6 mph73%29.80 "Hg10 mi
5:53 AM70 °FClear.No wind79%29.79 "Hg10 mi
4:53 AM70 °FClear.9 mph71%29.78 "Hg10 mi
3:53 AM72 °FClear.6 mph66%29.75 "Hg10 mi
2:53 AM72 °FClear.3 mph66%29.76 "Hg10 mi
1:53 AM73 °FClear.5 mph62%29.78 "Hg10 mi
12:53 AM74 °FClear.6 mph57%29.78 "Hg10 mi
Weather by CustomWeather, © 2016

See weather overviewHow to use our weather pages